Weather History for Blytheville Muni Airport, AR

Change the Weather History Date:

Wednesday, November 21, 2012

  Actual Average Record
Temperature  
Mean Temperature 52 °F -  
Max Temperature 66 °F 58 °F 77 °F (1942)
Min Temperature 39 °F 40 °F 16 °F (1937)
Degree Days  
Heating Degree Days 12    
Growing Degree Days 2 (Base 50)    
Moisture  
Dew Point 44 °F    
Average Humidity 82    
Maximum Humidity 96    
Minimum Humidity 48    
Precipitation  
Precipitation 0.00 in - - ()
Sea Level Pressure  
Sea Level Pressure 30.23 in    
Wind  
Wind Speed 6 mph (North)    
Max Wind Speed 9 mph    
Max Gust Speed -    
Visibility 5 miles    
Events      
Averages and records for this station are not official NWS values.
T = Trace of Precipitation, MM = Missing Value Source: NWS Daily Summary

Daily Weather History Graph

Daily Weather History Graph

Search for Another Location

Airport:

Trip Planner

Search our weather history database for the weather conditions in past years. The results will help you decide how hot, cold, wet, or windy it might be!

Date:

Astronomy

Nov. 21, 2012 Rise Set
Actual Time 6:42 AM CST 4:48 PM CST
Civil Twilight 6:14 AM CST 5:15 PM CST
Nautical Twilight 5:43 AM CST 5:47 PM CST
Astronomical Twilight 5:12 AM CST 6:17 PM CST
Moon 12:54 PM CST (11/21) 12:13 AM CST (11/21)
Length of Visible Light 11h 01m
Length of Day
10h 06m
First Quarter, 62% of the Moon is Illuminated
Nov 21
First Quarter
Nov 28
Full
Dec 6
Last Quarter
Dec 13
New
Dec 19
First Quarter

Hourly Weather History & Observations

Time (CST) Temp. Windchill Dew Point Humidity Pressure Visibility Wind Dir Wind Speed Gust Speed Precip Events Conditions
12:53 AM 45.0 °F 42.6 °F 43.0 °F 93% 30.17 in 8.0 mi North 4.6 mph - N/A   Clear
1:53 AM 44.1 °F 39.5 °F 42.1 °F 93% 30.17 in 5.0 mi NNW 8.1 mph - N/A   Clear
2:53 AM 45.0 °F 40.1 °F 43.0 °F 93% 30.19 in 5.0 mi North 9.2 mph - N/A   Clear
3:53 AM 45.0 °F 40.1 °F 42.1 °F 90% 30.20 in 5.0 mi North 9.2 mph - N/A   Clear
4:53 AM 41.0 °F 37.1 °F 39.9 °F 96% 30.21 in 3.0 mi North 5.8 mph - N/A   Clear
5:22 AM 41.0 °F 35.2 °F 37.4 °F 87% 30.22 in 2.5 mi North 9.2 mph - N/A   Clear
5:31 AM 42.8 °F 38.0 °F 39.2 °F 87% 30.23 in 3.0 mi North 8.1 mph - N/A   Clear
5:53 AM 42.1 °F 37.7 °F 41.0 °F 96% 30.23 in 3.0 mi North 6.9 mph - N/A   Clear
6:03 AM 41.0 °F 37.1 °F 39.2 °F 93% 30.23 in 2.5 mi North 5.8 mph - N/A   Clear
6:22 AM 41.0 °F 38.0 °F 39.2 °F 93% 30.24 in 1.5 mi North 4.6 mph - N/A   Clear
6:49 AM 39.2 °F 35.9 °F 37.4 °F 93% 30.25 in 0.8 mi NNW 4.6 mph - N/A   Clear
6:53 AM 41.0 °F 39.0 °F 39.0 °F 93% 30.25 in 0.8 mi NNW 3.5 mph - N/A   Clear
7:17 AM 42.8 °F 39.3 °F 39.2 °F 87% 30.26 in 1.0 mi NNW 5.8 mph - N/A   Clear
7:48 AM 46.4 °F 44.3 °F 44.6 °F 93% 30.27 in 2.0 mi North 4.6 mph - N/A   Clear
7:53 AM 46.9 °F - 45.0 °F 93% 30.27 in 2.5 mi North 5.8 mph - N/A   Clear
8:12 AM 48.2 °F - 46.4 °F 93% 30.27 in 3.0 mi NNE 8.1 mph - N/A   Clear
8:53 AM 53.1 °F - 48.0 °F 83% 30.27 in 4.0 mi NNE 6.9 mph - N/A   Haze
9:53 AM 57.0 °F - 48.9 °F 74% 30.29 in 6.0 mi NE 4.6 mph - N/A   Haze
10:53 AM 62.1 °F - 48.0 °F 60% 30.28 in 9.0 mi Variable 4.6 mph - N/A   Clear
11:53 AM 64.0 °F - 46.0 °F 52% 30.26 in 10.0 mi NE 5.8 mph - N/A   Clear
12:53 PM 66.0 °F - 46.9 °F 50% 30.25 in 10.0 mi North 4.6 mph - N/A   Clear
1:53 PM 66.0 °F - 46.0 °F 48% 30.22 in 10.0 mi Variable 3.5 mph - N/A   Clear
2:53 PM 66.0 °F - 46.0 °F 48% 30.21 in 9.0 mi Calm Calm - N/A   Clear
3:53 PM 64.0 °F - 46.9 °F 54% 30.21 in 10.0 mi North 5.8 mph - N/A   Clear
4:53 PM 55.9 °F - 48.0 °F 75% 30.21 in 9.0 mi NNE 3.5 mph - N/A   Clear
5:53 PM 51.1 °F - 46.0 °F 83% 30.22 in 9.0 mi NNW 4.6 mph - N/A   Clear
6:53 PM 53.1 °F - 46.9 °F 80% 30.22 in 8.0 mi Calm Calm - N/A   Clear
7:53 PM 50.0 °F - 46.0 °F 86% 30.22 in 5.0 mi Calm Calm - N/A   Clear
8:53 PM 48.0 °F - 45.0 °F 89% 30.21 in 6.0 mi SE 4.6 mph - N/A   Clear
9:53 PM 46.9 °F - 44.1 °F 90% 30.22 in 5.0 mi Calm Calm - N/A   Clear
10:53 PM 46.0 °F - 43.0 °F 89% 30.22 in 5.0 mi Calm Calm - N/A   Clear
11:53 PM 45.0 °F - 42.1 °F 90% 30.20 in 4.0 mi Calm Calm - N/A   Clear